Location: Bonny Doon Airfield
(37.0704°N, 122.1252°W)
Time: 18:13:58
(UTC-07:00)

Vanguard 1 Rocket - All Passes

Search period start: 26 April 2018 00:00
Search period end: 06 May 2018 00:00
Orbit: 654 x 4223 km, 34.3° (Epoch: 25 April)

Date Brightness Start Highest point End Pass type
(mag) Time Alt. Az. Time Alt. Az. Time Alt. Az.
26 Apr - 02:13:19 10° SE 02:15:58 10° SE 02:18:34 10° SE visible
26 Apr - 04:24:21 10° SSW 04:46:05 36° SE 05:01:46 10° E visible
26 Apr - 06:53:13 10° SW 07:16:22 64° SSE 07:29:04 10° E daylight
26 Apr - 09:27:11 10° W 09:45:10 79° S 09:53:56 10° E daylight
26 Apr - 12:00:27 10° W 12:11:27 51° SSW 12:17:26 10° SE daylight
27 Apr - 03:13:26 10° S 03:32:12 26° SE 03:47:45 10° E visible
27 Apr - 05:38:36 10° SW 06:02:41 55° SSE 06:17:38 10° E visible
27 Apr - 08:11:12 10° WSW 08:32:33 77° S 08:43:20 10° E daylight
27 Apr - 10:45:35 10° W 11:00:15 69° SSW 11:07:32 10° ESE daylight
27 Apr - 13:18:07 10° W 13:24:46 23° SW 13:29:18 10° S daylight
28 Apr - 02:05:52 10° SSE 02:18:29 16° SE 02:30:18 10° ESE visible
28 Apr - 04:25:17 10° SSW 04:48:40 44° SSE 05:05:26 10° E visible
28 Apr - 06:55:24 10° WSW 07:19:17 71° SSE 07:32:23 10° E daylight
28 Apr - 09:29:57 10° W 09:48:18 78° S 09:57:16 10° ESE daylight
28 Apr - 12:03:27 10° W 12:14:21 42° SSW 12:20:25 10° SE daylight
29 Apr - 03:13:34 10° SSW 03:34:36 33° SE 03:52:02 10° E visible
29 Apr - 05:40:25 10° SW 06:05:25 62° SSE 06:20:58 10° E visible
29 Apr - 08:13:49 10° W 08:35:36 80° S 08:46:38 10° E daylight
29 Apr - 10:48:25 10° W 11:03:16 62° SSW 11:10:44 10° ESE daylight
29 Apr - 13:21:55 10° W 13:27:22 17° SW 13:31:23 10° S daylight
30 Apr - 02:04:10 10° S 02:20:49 22° SE 02:36:23 10° E visible
30 Apr - 04:26:39 10° SW 04:51:11 51° SSE 05:08:53 10° E visible
30 Apr - 06:57:47 10° WSW 07:22:12 76° SSE 07:35:39 10° E daylight
30 Apr - 09:32:43 10° W 09:51:23 76° SSW 10:00:33 10° ESE daylight
30 Apr - 12:06:33 10° W 12:17:06 35° SW 12:23:13 10° SSE daylight
01 May - 01:00:49 10° SE 01:07:26 12° SE 01:14:05 10° ESE visible
01 May - 03:14:23 10° SSW 03:36:55 40° SE 03:55:48 10° E visible
01 May - 05:42:29 10° WSW 06:08:09 69° SSE 06:24:13 10° E visible
01 May - 08:16:30 10° W 08:38:40 81° S 08:49:56 10° E daylight
01 May - 10:51:16 10° W 11:06:10 55° SSW 11:13:49 10° SE daylight
01 May - 13:26:36 10° WSW 13:29:50 12° SW 13:32:34 10° SSW daylight
02 May - 02:03:56 10° S 02:23:00 28° SE 02:41:05 10° E visible
02 May - 04:28:22 10° SW 04:53:42 59° SSE 05:12:11 10° E visible
02 May - 07:00:19 10° WSW 07:25:09 80° S 07:38:55 10° E daylight
02 May - 09:35:27 10° W 09:54:23 71° SSW 10:03:46 10° ESE daylight
02 May - 12:09:47 10° W 12:19:41 28° SW 12:25:45 10° SSE daylight
03 May - 00:56:33 10° SSE 01:09:35 17° SE 01:22:57 10° E visible
03 May - 03:15:40 10° SSW 03:39:12 47° SE 03:59:17 10° E visible
03 May - 05:44:48 10° WSW 06:10:54 74° SSE 06:27:26 10° E visible
03 May - 08:19:13 10° W 08:41:41 80° S 08:53:12 10° ESE daylight
03 May - 10:54:07 10° W 11:08:56 47° SW 11:16:44 10° SE daylight
04 May - 02:04:33 10° SSW 02:25:04 35° SE 02:45:05 10° E visible
04 May - 04:30:23 10° SW 04:56:13 65° SSE 05:15:23 10° E visible
04 May - 07:02:58 10° W 07:28:05 82° S 07:42:11 10° E daylight
04 May - 09:38:12 10° W 09:57:17 65° SSW 10:06:53 10° SE daylight
04 May - 12:13:19 10° W 12:22:06 22° SW 12:27:55 10° S daylight
05 May - 00:55:35 10° S 01:11:35 23° SE 01:28:34 10° E visible
05 May - 03:17:20 10° SW 03:41:29 54° SSE 04:02:34 10° E visible
05 May - 05:47:17 10° WSW 06:13:42 78° S 06:30:39 10° E daylight
05 May - 08:21:56 10° W 08:44:40 77° SSW 08:56:26 10° ESE daylight
05 May - 10:57:03 10° W 11:11:31 39° SW 11:19:28 10° SSE daylight
